Regional Weather Roundup
Issued by NWS Upton, NY

Current Version | Previous Version | Graphics & Text | Print | Product List | Glossary Off
Versions: 1 2 3 4 5 6 7 8 9 10 11 12 13 14 15 16 17 18 19 20 21 22 23 24 25 26 27 28 29 30 31 32 33 34 35 36 37 38 39 40 41 42 43 44 45 46 47 48 49 50
000 ASUS41 KOKX 231009 RWROKX REGIONAL WEATHER ROUNDUP NATIONAL WEATHER SERVICE NEW YORK NY 600 AM EDT WED AUG 23 2017 NOTE: "FAIR" INDICATES FEW OR NO CLOUDS BELOW 12,000 FEET WITH NO SIGNIFICANT WEATHER AND/OR OBSTRUCTIONS TO VISIBILITY. NYZ071-072-176-178-NJZ106-104-231100- NEW YORK CITY METRO AREA CITY SKY/WX TMP DP RH WIND PRES REMARKS Central Park CLOUDY 73 72 96 W5 29.79S Bronx Bot Gard N/A 73 68 83 W7 29.79R LaGuardia APRT CLOUDY 76 71 85 W9 29.75S Kennedy INTL LGT RAIN 75 74 96 W10 29.77S Breezy Point N/A 72 N/A N/A W7 N/A Newark/Liberty CLOUDY 74 72 93 SW9 29.76S Teterboro CLOUDY 73 72 96 SW5 29.75S $$ NYZ177-179-078>081-231100- LONG ISLAND NEW YORK CITY SKY/WX TMP DP RH WIND PRES REMARKS Jones Beach N/A 72 N/A N/A W6 N/A Matinecock PT N/A 73 N/A N/A SW9 N/A Farmingdale MOCLDY 73 72 96 W7 29.76S MacArthur/ISP LGT RAIN 73 73 100 W7 29.75S Shirley LGT RAIN 74 73 97 SW7 29.76R Mt Sinai Harb N/A N/A N/A N/A SW6 N/A Westhampton MOCLDY 73 70 90 W6 29.77F East Hampton CLOUDY 72 70 95 W8 29.74F Montauk N/A 73 71 93 SW8 29.76R $$ NYZ052-065-067-231100- HUDSON VALLEY CITY SKY/WX TMP DP RH WIND PRES REMARKS White Plains CLOUDY 72 70 93 W8 29.77R Larchmont Harb N/A 73 N/A N/A SW9 N/A Croton On Huds N/A 73 N/A N/A CALM N/A Newburgh MOCLDY 70 70 100 W9 29.78R Montgomery CLEAR 69 65 86 SW5 29.77S Poughkeepsie CLEAR 71 69 93 SW6 29.75R Albany MOCLDY 67 57 70 NW7 29.78R $$ NJZ001-105-106-008-010-013-015-019>022-104-231100- NEW JERSEY CITY SKY/WX TMP DP RH WIND PRES REMARKS Newark/Liberty CLOUDY 74 72 93 SW9 29.76S Teterboro CLOUDY 73 72 96 SW5 29.75S Caldwell CLOUDY 72 72 100 CALM 29.78R Somerville CLOUDY 71 71 100 CALM 29.77R FOG Linden FAIR 73 71 92 CALM 29.76F Perth Amboy N/A 73 N/A N/A W7 N/A Sussex MOCLDY 70 64 81 N9G18 29.80R Andover N/A 68 67 96 CALM 29.80R Trenton CLOUDY 74 72 93 W6 29.78R Millville CLEAR 74 73 97 CALM 29.79S Atlantic City CLEAR 74 72 93 CALM 29.79R Wrightstown CLOUDY 73 72 97 W3 29.76R Toms River CLOUDY 72 71 97 W5 29.79R Belmar MOCLDY 73 72 96 SW5 29.79R $$ PAZ047>061-062-071-231100- EASTERN PENNSYLVANIA CITY SKY/WX TMP DP RH WIND PRES REMARKS Philadelphia CLOUDY 76 71 85 W7 29.80R Allentown MOCLDY 71 68 90 W6 29.80R Scranton CLOUDY 67 56 67 VRB5 29.86R $$ CTZ002-004>006-009-010-012-RIZ004-006-007-MAZ004-011-015-231100- SOUTHERN NEW ENGLAND IN CT CITY SKY/WX TMP DP RH WIND PRES REMARKS Bradley INTL CLOUDY 72 70 93 SW6 29.72R Hartford CLOUDY 74 71 91 CALM 29.73R Danbury CLOUDY 72 70 93 W6 29.78R Wtrbury/Oxford CLOUDY 70 69 97 SW3 29.78R Norwalk Harbor N/A 73 N/A N/A SW13 N/A Bridgeport CLOUDY 74 72 93 W7 29.74S Meriden CLOUDY 72 69 90 CALM 29.74R New Haven CLOUDY 74 71 91 VRB3 29.74S Chester N/A 72 72 100 VRB7 29.75S Groton MOCLDY 74 71 91 W9 29.73S Wilimantic CLOUDY 73 70 90 SW6 29.73R IN RI CITY SKY/WX TMP DP RH WIND PRES REMARKS Providence CLOUDY 74 72 93 SW7 29.73S Block Island CLOUDY 70 68 93 SW13 29.76R Westerly LGT RAIN 75 71 87 W10 29.75R IN MA CITY SKY/WX TMP DP RH WIND PRES REMARKS Boston CLOUDY 74 72 93 SW12 29.70R Worcester CLOUDY 70 67 90 SW9 29.74R Westfield CLOUDY 72 68 87 NW12 29.73R Provincetown CLOUDY 71 70 96 SW13 29.73R Nantucket CLOUDY 72 72 100 S18 29.77S FOG $$ ANZ330-335-338-340-345-350-353-355-231100- COASTAL MARINE OBSERVATIONS STATION/POSITION TIME SKY/WX TEMP WIND PRES VSBY WAVE AIR SEA DIR/SP/G HT/PER (UTC) (F) (DEG/KT/KT) (MB) (MI) (FT/S) NY HARB ENTRANCE 0950 74 75 260/ 12/ 14 1007.3 4/ 7 GREAT SOUTH BAY 0930 75 78 260/ 16/ 17 N/A 23 SSW MONTAUK P 0950 72 71 1007.6 6/ 7 15 E BARNEGAT LI 0930 76 N/A 5/ 7 HUDSON CANYON 0950 76 76 250/ 10/ 12 1008.5 6/ 7 KINGS POINT 0948 75 75 270/ 6/ 7 1007.5 EXECUTION ROCKS NOT AVBL WESTERN LI SOUND NOT AVBL CENTRAL LI SOUND NOT AVBL EASTERN LI SOUND NOT AVBL ROBBINS REEF 0942 260/ 10/ 12 1008.3 $$ >>>>>>>>>>>>>>>>>>>>>>>>>>>> KEY <<<<<<<<<<<<<<<<<<<<<<<<<<< > < > SKY/WX - Sky Condition/Present Weather < > TMP - Temperature in Fahrenheit < > DP - Dew Point in Fahrenheit < > RH - Relative Humidity in Percent < > WIND - Direction (from) and Speed in MPH < > PRES - Mean Sea Level Pressure (inches of Hg) < > WCI - Wind Chill Index < > VSB - VISIBILITY IN MILES < > HX - HEAT INDEX < > TC - TEMPERATURE IN CELSIUS < > VRB - VARIABLE WIND DIRECTION < > < >>>>>>>>>>>>>>>>>>>>>>>>>>>> KEY <<<<<<<<<<<<<<<<<<<<<<<<<<<

USA.gov is the U.S. government's official web portal to all federal, state and local government web resources and services.